Tracking 30685 objects as of 17-Jun-2025
HD Live streaming from Space Station
objects crossing your sky now

STARLINK-34241

Track STARLINK-34241 now!
10-day predictions
STARLINK-34241 is classified as:


NORAD ID: 64229
Int'l Code: 2025-117AC
Perigee: 424.4 km
Apogee: 426.4 km
Inclination: 53.2 °
Period: 92.9 minutes
Semi major axis: 6796 km
RCS: Unknown
Launch date: June 5, 2025
Source: United States (US)
Launch site: AIR FORCE WESTERN TEST RANGE (AFWTR)
Your satellite tracking list
Your tracking list is empty




NASA's NSSDC Master Catalog

Two Line Element Set (TLE):
1 64229U 25117AC  25168.16667824 -.01598175  00000-0 -31741-1 0  9996
2 64229  53.1601 200.3630 0001479  78.4800 119.2467 15.49483823  2732
Source of the keplerian elements: AFSPC